Regional Weather Roundup
Issued by NWS

Home | Current Version | Previous Version | Graphics & Text | Print | Product List | Glossary On
Versions: 1 2 3 4 5 6 7 8 9 10 11 12 13 14 15 16 17 18 19 20 21 22 23 24 25 26 27 28 29 30 31 32 33 34 35 36 37 38 39 40 41 42 43 44 45 46 47 48 49 50
556
ASUS45 KBOU 130610
RWRCO

WEATHER ROUNDUP FOR COLORADO
NATIONAL WEATHER SERVICE DENVER/BOULDER CO
1100 PM MST TUE DEC 12 2017

NOTE: "FAIR" INDICATES FEW OR NO CLOUDS BELOW 12000 FEET WITH NO
SIGNIFICANT WEATHER AND/OR OBSTRUCTIONS TO VISIBILITY.

COZ001>005-013-030-031-130700-
...NORTHWEST COLORADO...

CITY           SKY/WX    TMP DP  RH WIND       PRES   REMARKS
CRAIG          FAIR      14   9  80 CALM      30.31F
HAYDEN         FAIR      25  15  66 E7        30.32S WCI  17
MEEKER         FAIR      20   9  62 NE7       30.32F WCI  11
RABBIT EARS PA FAIR      28   9  43 W8G17     30.37S WCI  20
STEAMBOAT SPGS FAIR      21  13  72 E3        30.31F
WALDEN         FAIR      19   7  58 SE10      30.29F WCI   8
$$

COZ006>008-011-130700-
...WEST CENTRAL VALLEYS...

CITY           SKY/WX    TMP DP  RH WIND       PRES   REMARKS
GRAND JUNCTION FAIR      30  10  43 E7        30.32S WCI  23
MONTROSE       FAIR      26   9  48 S9        30.35S WCI  17
EAGLE          FAIR      15  10  80 E3        30.38F
RIFLE          FAIR      22  10  60 CALM      30.34S
DELTA          FAIR      29   7  39 CALM      30.34S
NUCLA          FAIR      30   5  34 SE5       30.35S WCI  25
$$

COZ017>023-064>068-130700-
...SOUTHWEST COLORADO...

CITY           SKY/WX    TMP DP  RH WIND       PRES   REMARKS
DURANGO        FAIR      22   4  46 N6        30.29F WCI  14
CORTEZ         FAIR      18   2  49 NE6       30.31S WCI  10
PAGOSA SPRINGS FAIR      26   1  33 CALM      30.32S
TELLURIDE      FAIR      31   8  36 SE5       30.40S WCI  27
WOLF CREEK PAS FAIR      32  -2  23 NW6       30.48F WCI  26
$$

COZ009-010-012-014-032>034-037-058>063-130700-
...CENTRAL COLORADO...

CITY           SKY/WX    TMP DP  RH WIND       PRES   REMARKS
ASPEN          FAIR      22  12  65 S7        30.34F WCI  13
BUENA VISTA    FAIR      35  11  37 NW15G22   30.29F WCI  25
COPPER MTN     NOT AVBL
BERTHOUD PASS  FAIR      21  10  63 NW31G39   30.36S WCI   3
COTTONWOOD PAS FAIR      41   5  22 W14G23    30.34F
GUNNISON       FAIR      15   7  70 CALM      30.39
KREMMLING      FAIR      12   9  85 CALM      30.37S
LEADVILLE      FAIR      26   5  40 VRB3      30.36F
MONARCH PASS   FAIR      27   5  39 W16G23    30.52S WCI  14
SALIDA         FAIR      34   8  34 SW6       30.37S WCI  29
SUNLIGHT       FAIR      32   1  27 W7        30.45F WCI  26
WILKERSON PASS FAIR      32  -6  19 NW13G24   30.37F WCI  22
$$

COZ069>075-130700-
...SAN LUIS VALLEY/SANGRE DE CRISTO MOUNTAINS...

CITY           SKY/WX    TMP DP  RH WIND       PRES   REMARKS
ALAMOSA        FAIR      17   0  47 NW5       30.30F WCI  10
DEL NORTE      FAIR      26   2  35 W10       30.32S WCI  17
LA VETA PASS   FAIR      34   7  32 SW23G35     N/A  WCI  22
SAGUACHE       FAIR      28   7  40 NW16      30.31F WCI  17
$$

COZ035-036-038>040-130700-
...NORTHERN COLORADO FRONT RANGE...

CITY           SKY/WX    TMP DP  RH WIND       PRES   REMARKS
DENVER INTL AP FAIR      43   9  24 SW13      30.09F
DMNS CITY PARK NOT AVBL
AURORA         CLEAR     40  10  29 SW8       30.10F
FRONT RANGE AP FAIR      46  11  24 SW10      30.10S
ERIE MUNI ARPT FAIR      52   2  13 CALM      30.13S
BOULDER MUN AP FAIR      55   9  15 N8        30.07S
CENTENNIAL     FAIR      44  10  25 SW10      30.11F
BROOMFIELD     FAIR      55   9  15 NW26G37   30.09F
FORT COLLINS   FAIR      42   8  24 S7        30.06F
LONGMONT       FAIR      39  10  31 CALM      30.08S
$$

COZ041-046-047-076>085-087-088-130700-
...PIKES PEAK/PALMER DIVIDE AND SOUTHERN FOOTHILLS...

CITY           SKY/WX    TMP DP  RH WIND       PRES   REMARKS
COLO. SPRINGS  FAIR      38  12  34 N9        30.15F
A. F. ACADEMY  FAIR      29   8  40 NE9       30.15F WCI  21
SCHRIEVER AFB  FAIR      45  10  24 NW6       30.14F
CHEYENNE MTN   FAIR      49   7  18 S5        30.11F
ELLICOTT         N/A    N/A N/A N/A CALM      30.12F
FALCON         FAIR      37   8  29 NW8       30.16F
FORT CARSON    FAIR      33  12  40 N7        30.12F WCI  27
LIMON          FAIR      34  12  40 W13       30.08F WCI  25
MONUMENT HILL  FAIR      36   9  32 W9        30.17F
CANON CITY     FAIR      48  14  25 W15       30.14S
WALSENBURG     FAIR      48   7  18 W13       30.16S
TRINIDAD       FAIR      35  12  38 NW12      30.14S WCI  27
$$

COZ042>045-048>051-090-091-130700-
...NORTHEAST COLORADO...

CITY           SKY/WX    TMP DP  RH WIND       PRES   REMARKS
GREELEY ARPT   FAIR      24  14  65 VRB7      30.05F WCI  16
AKRON          FAIR      40  13  33 MISG      30.03S
BURLINGTON     FAIR      37  15  40 W12       30.00F
WRAY           FAIR      32  16  51 SW9       29.99S WCI  24
YUMA           FAIR      34  16  47 W10       30.00S WCI  26
STERLING       FAIR      37  14  38 SW6       29.99S
HOLYOKE        FAIR      43  14  31 W13G20    29.98R
FORT MORGAN    FAIR      32  11  42 W9        30.04S WCI  24
$$

COZ086-089-092>099-130700-
...SOUTHEAST COLORADO...

CITY           SKY/WX    TMP DP  RH WIND       PRES   REMARKS
PUEBLO         FAIR      29  10  45 W8        30.09F WCI  21
LA JUNTA       FAIR      36  12  37 SW6       30.07F
LAMAR          FAIR      33  11  39 SW7       30.03F WCI  27
SPRINGFIELD      N/A     40  12  32 W3        30.06F
$$




USA.gov is the U.S. government's official web portal to all federal, state and local government web resources and services.